This is the latest recevied weather packets stored in our database for station/object 9D9-WX. If no packets are shown the sender has not sent any weather packets the latest 10 day(s).
| Time | Temp. | Humidity | Pressure | Rain* | Wind** | Luminosity | Snow |
|---|---|---|---|---|---|---|---|
| 1777823109 | 13.33° C | 52% | 984.5 hPa | 0 mm | - | - | - |
| 1777822222 | 12.78° C | 56% | 984.2 hPa | 0 mm | - | - | - |
| 1777821309 | 12.22° C | 56% | 984.1 hPa | 0 mm | - | - | - |
| 1777820433 | 11.67° C | 56% | 984.1 hPa | 0 mm | - | - | - |
| 1777819510 | 11.11° C | 56% | 984.1 hPa | 0 mm | - | - | - |
| 1777818629 | 11.11° C | 57% | 984.2 hPa | 0 mm | - | - | - |
| 1777817710 | 10.56° C | 57% | 984.2 hPa | 0 mm | - | - | - |
| 1777816828 | 10.56° C | 57% | 984.2 hPa | 0 mm | - | - | - |
| 1777815910 | 10° C | 64% | 984.6 hPa | 0 mm | - | - | - |
| 1777815023 | 9.44° C | 64% | 984.6 hPa | 0 mm | - | - | - |
| 1777814110 | 7.78° C | 64% | 984.5 hPa | 0 mm | - | - | - |
| 1777813233 | 7.22° C | 64% | 984.5 hPa | 0 mm | - | - | - |
| 1777812310 | 6.67° C | 62% | 983.7 hPa | 0 mm | - | - | - |
| 1777811429 | 6.67° C | 65% | 984.8 hPa | 0 mm | - | - | - |
| 1777810510 | 6.11° C | 65% | 984.8 hPa | 0 mm | - | - | - |
| 1777809634 | 5.56° C | 65% | 984.8 hPa | 0 mm | - | - | - |
| 1777808710 | 5° C | 63% | 984.6 hPa | 0 mm | - | - | - |
| 1777807823 | 3.89° C | 66% | 983.8 hPa | 0 mm | - | - | - |
| 1777806909 | 3.89° C | 66% | 983.9 hPa | 0 mm | - | - | - |
| 1777806032 | 3.89° C | 66% | 983.9 hPa | 0 mm | - | - | - |
| 1777805109 | 3.33° C | 63% | 983.7 hPa | 0 mm | - | - | - |
| 1777804222 | 3.33° C | 67% | 984 hPa | 0 mm | - | - | - |
| 1777803309 | 3.33° C | 67% | 983.9 hPa | 0 mm | - | - | - |
| 1777802434 | 2.78° C | 67% | 983.9 hPa | 0 mm | - | - | - |
| 1777801509 | 2.78° C | 64% | 984.1 hPa | 0 mm | - | - | - |
* Rain latest hour (hover to see other rain measurements)
** Current wind speed in m/s (hover to see current wind gust speed)